Date String (YYYY-MM-DD hh:mm:ss) UTC,Instrument flags,Ambient pressure (hPa),Sample flow (lpm),Bypass flow (lpm),Sample temperature (°C),Ambient temperature (°C),ASC tube jacket temperature (°C),LED temperature (°C),Box temperature (°C),Sample RH (%),Span deviation,Mass concentration (μg/m³),Mass concentration (μg/m³),Mass concentration (μg/m³)
DateTimeUTC,F1_M11,P_M11,Q1_M11,Q2_M11,T1_M11,T2_M11,T3_M11,T4_M11,T5_M11,U1_M11,ZSPAN_M11,X0_M11,X2_M11,X1_M11
2021-09-16 13:00:00,,0823.6,5.01,0.00,29.8,29.1,00.0,39.0,31.5,08.3,0003.2,0008.04,0005.63,0005.39
2021-09-16 13:01:00,,0823.6,5.00,0.00,29.8,29.0,00.0,39.0,31.5,08.3,0003.4,0008.07,0005.64,0005.40
2021-09-16 13:02:00,,0823.5,5.00,0.00,29.8,29.0,00.0,39.0,31.5,08.3,0003.5,0008.40,0005.67,0005.41
2021-09-16 13:03:00,,0823.6,5.00,0.00,29.8,29.1,00.0,39.0,31.5,08.4,0003.3,0008.73,0005.67,0005.40
2021-09-16 13:04:00,,0823.6,5.00,0.00,29.8,29.1,00.0,39.0,31.5,08.4,0003.1,0008.83,0005.68,0005.38
2021-09-16 13:05:00,,0823.6,5.00,0.00,29.8,29.1,00.0,39.0,31.5,08.5,0003.2,0008.84,0005.68,0005.36
2021-09-16 13:06:00,,0823.6,4.99,0.00,29.8,29.1,00.0,39.0,31.5,08.5,0003.3,0008.93,0005.70,0005.36
2021-09-16 13:07:00,,0823.6,5.00,0.00,29.8,29.1,00.0,39.0,31.5,08.5,0003.5,0009.24,0005.71,0005.35
2021-09-16 13:08:00,,0823.6,5.00,0.00,29.8,29.1,00.0,39.0,31.5,08.5,0003.8,0009.45,0005.71,0005.33
2021-09-16 13:09:00,,0823.6,4.99,0.00,29.8,29.1,00.0,39.0,31.5,08.5,0003.8,0009.52,0005.74,0005.33
2021-09-16 13:10:00,,0823.6,5.00,0.00,29.8,29.1,00.0,39.0,31.5,08.5,0003.8,0009.53,0005.74,0005.33
2021-09-16 13:11:00,,0823.6,5.00,0.00,29.8,29.1,00.0,39.0,31.5,08.6,0003.7,0009.54,0005.75,0005.33
2021-09-16 13:12:00,,0823.7,5.01,0.00,29.8,29.1,00.0,39.0,31.5,08.7,0003.6,0009.54,0005.75,0005.33
2021-09-16 13:13:00,,0823.6,5.01,0.00,29.8,29.1,00.0,39.0,31.5,08.7,0003.2,0009.29,0005.74,0005.33
2021-09-16 13:14:00,,0823.7,4.99,0.00,29.8,29.1,00.0,39.0,31.5,08.6,0003.4,0008.96,0005.74,0005.33
2021-09-16 13:15:00,,0823.7,5.01,0.00,29.8,29.2,00.0,39.0,31.6,08.6,0003.5,0008.83,0005.71,0005.34
2021-09-16 13:16:00,,0823.7,4.99,0.00,29.8,29.2,00.0,39.0,31.6,08.5,0003.2,0008.90,0005.72,0005.37
2021-09-16 13:17:00,,0823.7,4.99,0.00,29.8,29.2,00.0,39.0,31.5,08.5,0002.9,0009.64,0005.70,0005.37
2021-09-16 13:18:00,,0823.7,5.01,0.00,29.8,29.2,00.0,39.0,31.6,08.5,0002.8,0009.68,0005.69,0005.38
2021-09-16 13:19:00,,0823.7,5.00,0.00,29.8,29.2,00.0,39.0,31.6,08.6,0002.6,0010.04,0005.73,0005.41
2021-09-16 13:20:00,,0823.7,4.99,0.00,29.8,29.2,00.0,39.0,31.6,08.6,0002.3,0010.87,0005.72,0005.42
2021-09-16 13:21:00,,0823.7,4.99,0.00,29.8,29.2,00.0,39.0,31.6,08.6,0001.8,0010.92,0005.73,0005.43
2021-09-16 13:22:00,,0823.7,5.01,0.00,29.9,29.2,00.0,39.0,31.6,08.6,0001.9,0010.92,0005.75,0005.46
2021-09-16 13:23:00,,0823.7,4.99,0.00,29.9,29.1,00.0,39.0,31.6,08.7,0001.7,0011.01,0005.77,0005.49
2021-09-16 13:24:00,,0823.7,5.00,0.00,29.9,29.2,00.0,39.0,31.6,08.7,0002.1,0011.01,0005.79,0005.52
2021-09-16 13:25:00,,0823.7,5.01,0.00,29.9,29.2,00.0,39.0,31.6,08.7,0001.8,0010.99,0005.79,0005.54
2021-09-16 13:26:00,,0823.7,5.00,0.00,29.9,29.2,00.0,39.0,31.6,08.8,0002.4,0011.50,0005.80,0005.55
2021-09-16 13:27:00,,0823.7,5.00,0.00,29.9,29.2,00.0,39.0,31.6,08.9,0002.5,0011.74,0005.82,0005.55
2021-09-16 13:28:00,,0823.7,5.01,0.00,29.9,29.2,00.0,39.0,31.6,08.9,0002.5,0010.94,0005.85,0005.58
2021-09-16 13:29:00,,0823.7,4.99,0.00,29.9,29.2,00.0,39.0,31.6,08.9,0002.7,0010.82,0005.86,0005.59
2021-09-16 13:30:00,,0823.8,4.99,0.00,29.9,29.2,00.0,39.0,31.7,08.9,0002.4,0010.64,0005.86,0005.61
2021-09-16 13:31:00,,0823.8,5.01,0.00,29.9,29.2,00.0,39.0,31.7,08.9,0002.2,0010.21,0005.86,0005.62
2021-09-16 13:32:00,,0823.8,5.00,0.00,29.9,29.2,00.0,39.0,31.7,08.9,0002.6,0010.81,0005.86,0005.64
2021-09-16 13:33:00,,0823.8,5.00,0.00,29.9,29.2,00.0,39.1,31.7,08.9,0002.5,0010.95,0005.88,0005.63
2021-09-16 13:34:00,,0823.8,5.01,0.00,29.9,29.2,00.0,39.1,31.7,08.9,0002.8,0011.20,0005.92,0005.62
2021-09-16 13:35:00,,0823.8,5.00,0.00,30.0,29.3,00.0,39.1,31.7,08.8,0002.9,0011.73,0005.93,0005.61
2021-09-16 13:36:00,,0823.8,4.98,0.00,30.0,29.3,00.0,39.1,31.8,08.9,0003.0,0012.34,0005.98,0005.61
2021-09-16 13:37:00,,0823.8,5.01,0.00,30.0,29.3,00.0,39.1,31.7,08.8,0002.5,0011.90,0006.02,0005.62
2021-09-16 13:38:00,,0823.8,4.99,0.00,30.0,29.3,00.0,39.1,31.7,08.8,0002.7,0011.73,0006.04,0005.63
2021-09-16 13:39:00,,0823.9,5.02,0.00,30.0,29.3,00.0,39.1,31.7,09.0,0002.8,0011.86,0006.06,0005.64
2021-09-16 13:40:00,,0823.8,5.00,0.00,30.0,29.3,00.0,39.1,31.7,08.9,0002.6,0011.79,0006.06,0005.64
2021-09-16 13:41:00,,0823.8,4.99,0.00,30.0,29.3,00.0,39.1,31.7,09.0,0002.9,0011.33,0006.06,0005.64
2021-09-16 13:42:00,,0823.9,5.00,0.00,30.0,29.3,00.0,39.1,31.7,09.1,0003.2,0011.03,0006.08,0005.65
2021-09-16 13:43:00,,0823.8,5.00,0.00,30.0,29.3,00.0,39.1,31.8,09.2,0003.3,0010.49,0006.09,0005.64
2021-09-16 13:44:00,,0823.8,4.99,0.00,30.0,29.4,00.0,39.1,31.8,09.1,0003.2,0010.55,0006.12,0005.65
2021-09-16 13:45:00,,0823.9,5.00,0.00,30.0,29.4,00.0,39.1,31.8,09.2,0003.1,0011.02,0006.14,0005.67
2021-09-16 13:46:00,,0823.9,5.00,0.00,30.1,29.4,00.0,39.1,31.8,09.1,0003.0,0010.46,0006.12,0005.68
2021-09-16 13:47:00,,0823.9,5.00,0.00,30.1,29.3,00.0,39.1,31.8,09.2,0002.7,0010.04,0006.10,0005.66
2021-09-16 13:48:00,,0823.9,5.01,0.00,30.1,29.3,00.0,39.2,31.8,09.2,0002.7,0009.87,0006.06,0005.64
2021-09-16 13:49:00,,0823.9,5.00,0.00,30.1,29.4,00.0,39.2,31.8,09.1,0002.2,0009.87,0006.04,0005.63
2021-09-16 13:50:00,,0823.9,4.99,0.00,30.1,29.4,00.0,39.2,31.8,09.2,0002.3,0009.74,0006.01,0005.61
2021-09-16 13:51:00,,0823.9,4.99,0.00,30.1,29.4,00.0,39.2,31.8,09.3,0002.7,0010.59,0006.01,0005.61
2021-09-16 13:52:00,,0823.9,5.00,0.00,30.1,29.4,00.0,39.2,31.9,09.4,0002.9,0011.17,0006.02,0005.58
2021-09-16 13:53:00,,0823.9,5.01,0.00,30.1,29.4,00.0,39.2,31.9,09.6,0002.9,0011.16,0006.01,0005.56
2021-09-16 13:54:00,,0823.9,4.99,0.00,30.2,29.3,00.0,39.2,31.8,09.4,0002.7,0011.02,0005.99,0005.55
2021-09-16 13:55:00,,0823.9,5.02,0.00,30.1,27.8,00.0,39.2,31.5,09.3,0002.5,0010.93,0005.95,0005.53
2021-09-16 13:56:00,,0823.9,5.00,0.00,29.9,26.5,00.0,39.2,31.2,09.2,0002.4,0010.37,0005.90,0005.51
2021-09-16 13:57:00,,0823.9,5.00,0.00,29.9,26.7,00.0,39.1,31.2,09.2,0002.7,0010.29,0005.91,0005.51
2021-09-16 13:58:00,,0823.9,5.00,0.00,29.8,27.1,00.0,39.1,31.2,09.2,0003.0,0010.23,0005.91,0005.51
2021-09-16 13:59:00,,0824.0,4.99,0.00,29.8,27.5,00.0,39.0,31.3,09.3,0003.1,0010.22,0005.91,0005.52
